Location: Unspecified
(41.5516°N, 88.1098°W)
Time: 03:26:49
(UTC-05:00)

Cosmos 1674 - Visible Passes

Search period start: 30 May 2015 00:00
Search period end: 09 June 2015 00:00
Orbit: 507 x 532 km, 82.5° (Epoch: 29 May)

Date Brightness Start Highest point End Pass type
(mag) Time Alt. Az. Time Alt. Az. Time Alt. Az.
30 May 4.3 01:00:45 31° NE 01:00:45 31° NE 01:03:19 10° NNE visible
30 May 5.0 02:35:50 14° WNW 02:35:50 14° WNW 02:37:50 10° NW visible
31 May 4.4 00:46:58 27° ENE 00:46:58 27° ENE 00:49:22 10° NNE visible
31 May 4.9 02:22:03 17° WNW 02:22:03 17° WNW 02:24:19 10° NNW visible
01 Jun 4.6 00:33:11 24° ENE 00:33:11 24° ENE 00:35:24 10° NNE visible
01 Jun 4.8 02:08:16 19° WNW 02:08:16 19° WNW 02:10:43 10° NNW visible
02 Jun 4.8 00:19:22 21° ENE 00:19:22 21° ENE 00:21:24 10° NE visible
02 Jun 4.6 01:54:27 22° WNW 01:54:27 22° WNW 01:57:04 10° NNW visible
03 Jun 4.9 00:05:33 18° ENE 00:05:33 18° ENE 00:07:21 10° NE visible
03 Jun 4.5 01:40:38 25° WNW 01:40:38 25° WNW 01:43:22 10° NNW visible
03 Jun 5.0 23:51:43 16° ENE 23:51:43 16° ENE 23:53:15 10° NE visible
04 Jun 4.3 01:26:48 29° WNW 01:26:48 29° WNW 01:29:39 10° NNW visible
04 Jun 5.1 23:37:52 14° ENE 23:37:52 14° ENE 23:39:04 10° NE visible
05 Jun 4.1 01:12:57 33° NW 01:12:57 33° NW 01:15:53 10° N visible
05 Jun 5.2 23:24:00 12° ENE 23:24:00 12° ENE 23:24:46 10° ENE visible
06 Jun 3.9 00:59:05 38° NW 00:59:05 38° NW 01:02:07 10° N visible
06 Jun 5.3 23:10:07 10° ENE 23:10:07 10° ENE 23:10:10 10° ENE visible
07 Jun 3.7 00:45:12 44° NW 00:45:12 44° NW 00:48:18 10° N visible
08 Jun 3.5 00:31:18 50° NW 00:31:18 50° NW 00:34:28 10° N visible
